Time,TemperatureF,DewpointF,PressureIn,WindDirection,WindDirectionDegrees,WindSpeedMPH,WindSpeedGustMPH,Humidity,HourlyPrecipIn,Conditions,Clouds,dailyrainin,SoftwareType,DateUTC
2013-03-28 00:04:00,40.5,31.0,29.84,NNW,339,0.0,-999.0,68,-99.99,,,0.00,weatherlink.com 1.10,2013-03-28 04:04:00,
2013-03-28 00:17:00,40.5,31.0,29.84,NNW,339,0.0,-999.0,69,-99.99,,,0.00,weatherlink.com 1.10,2013-03-28 04:17:00,
2013-03-28 00:32:00,40.6,31.0,29.84,NNW,339,0.0,-999.0,69,-99.99,,,0.00,weatherlink.com 1.10,2013-03-28 04:32:00,
2013-03-28 00:47:00,41.1,32.0,29.84,NNW,339,1.0,-999.0,69,-99.99,,,0.00,weatherlink.com 1.10,2013-03-28 04:47:00,
2013-03-28 01:04:00,41.4,32.0,29.84,NNW,335,1.0,-999.0,70,-99.99,,,0.00,weatherlink.com 1.10,2013-03-28 05:04:00,
2013-03-28 01:17:00,41.3,32.0,29.84,NNW,331,0.0,-999.0,70,-99.99,,,0.00,weatherlink.com 1.10,2013-03-28 05:17:00,
2013-03-28 01:32:00,41.1,32.0,29.84,NNW,331,0.0,-999.0,69,-99.99,,,0.00,weatherlink.com 1.10,2013-03-28 05:32:00,
2013-03-28 01:47:00,41.1,32.0,29.84,NW,324,0.0,-999.0,69,-99.99,,,0.00,weatherlink.com 1.10,2013-03-28 05:47:00,
2013-03-28 02:04:00,41.1,32.0,29.84,NW,318,3.0,-999.0,69,-99.99,,,0.00,weatherlink.com 1.10,2013-03-28 06:04:00,
2013-03-28 02:17:00,41.2,32.0,29.84,NW,319,1.0,-999.0,69,-99.99,,,0.00,weatherlink.com 1.10,2013-03-28 06:17:00,
2013-03-28 02:32:00,41.1,32.0,29.84,NW,319,0.0,-999.0,69,-99.99,,,0.00,weatherlink.com 1.10,2013-03-28 06:32:00,
2013-03-28 02:47:00,41.1,32.0,29.84,NW,319,2.0,-999.0,69,-99.99,,,0.00,weatherlink.com 1.10,2013-03-28 06:47:00,
2013-03-28 03:04:00,41.0,31.0,29.84,NW,315,2.0,-999.0,67,-99.99,,,0.00,weatherlink.com 1.10,2013-03-28 07:04:00,
2013-03-28 03:32:00,40.2,29.0,29.84,NW,322,3.0,-999.0,64,-99.99,,,0.00,weatherlink.com 1.10,2013-03-28 07:32:00,
2013-03-28 03:47:00,39.4,26.0,29.85,NNW,334,0.0,-999.0,59,-99.99,,,0.00,weatherlink.com 1.10,2013-03-28 07:47:00,
2013-03-28 04:04:00,38.8,24.0,29.85,NNW,334,2.0,-999.0,55,-99.99,,,0.00,weatherlink.com 1.10,2013-03-28 08:04:00,
2013-03-28 04:17:00,38.2,22.0,29.85,NNW,328,0.0,-999.0,52,-99.99,,,0.00,weatherlink.com 1.10,2013-03-28 08:17:00,
2013-03-28 04:32:00,37.9,20.0,29.85,NW,315,0.0,-999.0,49,-99.99,,,0.01,weatherlink.com 1.10,2013-03-28 08:32:00,
2013-03-28 04:47:00,37.7,19.0,29.85,NW,311,0.0,-999.0,47,-99.99,,,0.01,weatherlink.com 1.10,2013-03-28 08:47:00,
2013-03-28 05:04:00,37.5,18.0,29.85,NW,322,1.0,-999.0,45,-99.99,,,0.01,weatherlink.com 1.10,2013-03-28 09:04:00,
2013-03-28 05:17:00,37.3,17.0,29.85,NW,319,0.0,-999.0,43,-99.99,,,0.01,weatherlink.com 1.10,2013-03-28 09:17:00,
2013-03-28 05:32:00,37.0,16.0,29.86,WNW,301,0.0,-999.0,42,-99.99,,,0.01,weatherlink.com 1.10,2013-03-28 09:32:00,
2013-03-28 05:47:00,36.9,15.0,29.86,WNW,302,0.0,-999.0,41,-99.99,,,0.01,weatherlink.com 1.10,2013-03-28 09:47:00,
2013-03-28 06:17:00,36.8,13.0,29.86,NW,306,0.0,-999.0,38,-99.99,,,0.02,weatherlink.com 1.10,2013-03-28 10:17:00,
2013-03-28 06:32:00,36.7,13.0,29.86,NW,316,0.0,-999.0,38,-99.99,,,0.02,weatherlink.com 1.10,2013-03-28 10:32:00,
2013-03-28 06:47:00,36.7,13.0,29.87,WNW,291,1.0,-999.0,37,-99.99,,,0.02,weatherlink.com 1.10,2013-03-28 10:47:00,
2013-03-28 07:04:00,36.7,12.0,29.87,NW,319,2.0,-999.0,36,-99.99,,,0.02,weatherlink.com 1.10,2013-03-28 11:04:00,
2013-03-28 07:17:00,36.9,12.0,29.88,NW,306,0.0,-999.0,36,-99.99,,,0.02,weatherlink.com 1.10,2013-03-28 11:17:00,
2013-03-28 07:32:00,37.2,12.0,29.88,NW,310,0.0,-999.0,35,-99.99,,,0.02,weatherlink.com 1.10,2013-03-28 11:32:00,
2013-03-28 07:47:00,37.6,12.0,29.89,NW,318,3.0,-999.0,35,-99.99,,,0.02,weatherlink.com 1.10,2013-03-28 11:47:00,
2013-03-28 08:04:00,37.9,12.0,29.89,WNW,285,2.0,-999.0,35,-99.99,,,0.02,weatherlink.com 1.10,2013-03-28 12:04:00,
2013-03-28 08:17:00,38.0,12.0,29.89,NNW,342,3.0,-999.0,35,-99.99,,,0.02,weatherlink.com 1.10,2013-03-28 12:17:00,
2013-03-28 08:32:00,38.2,13.0,29.90,NW,322,3.0,-999.0,36,-99.99,,,0.02,weatherlink.com 1.10,2013-03-28 12:32:00,
2013-03-28 08:47:00,38.4,13.0,29.90,NNW,333,0.0,-999.0,36,-99.99,,,0.02,weatherlink.com 1.10,2013-03-28 12:47:00,
2013-03-28 09:04:00,38.9,14.0,29.91,North,350,0.0,-999.0,36,-99.99,,,0.02,weatherlink.com 1.10,2013-03-28 13:04:00,
2013-03-28 09:17:00,38.6,14.0,29.91,NNW,333,0.0,-999.0,36,-99.99,,,0.02,weatherlink.com 1.10,2013-03-28 13:17:00,
2013-03-28 09:32:00,38.6,14.0,29.91,WNW,290,2.0,-999.0,36,-99.99,,,0.02,weatherlink.com 1.10,2013-03-28 13:32:00,
2013-03-28 09:47:00,39.1,14.0,29.91,North,4,0.0,-999.0,36,-99.99,,,0.02,weatherlink.com 1.10,2013-03-28 13:47:00,
2013-03-28 10:04:00,39.5,14.0,29.91,NNW,341,3.0,-999.0,36,-99.99,,,0.02,weatherlink.com 1.10,2013-03-28 14:04:00,
2013-03-28 10:17:00,40.2,16.0,29.92,NNW,338,3.0,-999.0,37,-99.99,,,0.02,weatherlink.com 1.10,2013-03-28 14:17:00,
2013-03-28 10:32:00,41.0,19.0,29.92,NNW,327,7.0,-999.0,41,-99.99,,,0.02,weatherlink.com 1.10,2013-03-28 14:32:00,
2013-03-28 10:47:00,42.0,23.0,29.92,NNW,346,5.0,-999.0,47,-99.99,,,0.02,weatherlink.com 1.10,2013-03-28 14:47:00,
2013-03-28 11:04:00,43.1,27.0,29.92,North,351,0.0,-999.0,54,-99.99,,,0.02,weatherlink.com 1.10,2013-03-28 15:04:00,
2013-03-28 11:17:00,44.2,31.0,29.93,NNW,337,1.0,-999.0,61,-99.99,,,0.02,weatherlink.com 1.10,2013-03-28 15:17:00,
2013-03-28 11:32:00,45.5,35.0,29.93,North,1,1.0,-999.0,66,-99.99,,,0.02,weatherlink.com 1.10,2013-03-28 15:32:00,
2013-03-28 11:47:00,45.7,36.0,29.93,NNW,335,6.0,-999.0,69,-99.99,,,0.02,weatherlink.com 1.10,2013-03-28 15:47:00,
2013-03-28 12:04:00,46.6,37.0,29.93,NNW,346,4.0,-999.0,69,-99.99,,,0.02,weatherlink.com 1.10,2013-03-28 16:04:00,
2013-03-28 12:32:00,47.7,38.0,29.93,NNW,341,1.0,-999.0,68,-99.99,,,0.02,weatherlink.com 1.10,2013-03-28 16:32:00,
2013-03-28 12:47:00,48.7,38.0,29.93,North,2,3.0,-999.0,66,-99.99,,,0.02,weatherlink.com 1.10,2013-03-28 16:47:00,
2013-03-28 13:04:00,49.4,38.0,29.93,ENE,63,0.0,-999.0,65,-99.99,,,0.02,weatherlink.com 1.10,2013-03-28 17:04:00,
2013-03-28 13:17:00,49.7,38.0,29.93,NNE,15,2.0,-999.0,64,-99.99,,,0.02,weatherlink.com 1.10,2013-03-28 17:17:00,
2013-03-28 13:32:00,50.1,37.0,29.92,NNE,29,1.0,-999.0,62,-99.99,,,0.02,weatherlink.com 1.10,2013-03-28 17:32:00,
2013-03-28 13:47:00,50.3,37.0,29.93,North,8,2.0,-999.0,60,-99.99,,,0.02,weatherlink.com 1.10,2013-03-28 17:47:00,
2013-03-28 14:04:00,50.6,36.0,29.92,NNE,27,0.0,-999.0,58,-99.99,,,0.02,weatherlink.com 1.10,2013-03-28 18:04:00,
2013-03-28 14:17:00,51.0,36.0,29.92,NNE,24,1.0,-999.0,57,-99.99,,,0.02,weatherlink.com 1.10,2013-03-28 18:17:00,
2013-03-28 14:32:00,51.6,37.0,29.93,NNE,12,1.0,-999.0,58,-99.99,,,0.02,weatherlink.com 1.10,2013-03-28 18:32:00,
2013-03-28 14:47:00,49.7,35.0,29.93,North,5,1.0,-999.0,58,-99.99,,,0.02,weatherlink.com 1.10,2013-03-28 18:47:00,
2013-03-28 15:04:00,49.3,34.0,29.93,North,2,0.0,-999.0,57,-99.99,,,0.02,weatherlink.com 1.10,2013-03-28 19:04:00,
2013-03-28 15:17:00,48.6,34.0,29.93,NNE,16,2.0,-999.0,58,-99.99,,,0.02,weatherlink.com 1.10,2013-03-28 19:17:00,
2013-03-28 15:32:00,48.3,33.0,29.93,NE,41,2.0,-999.0,57,-99.99,,,0.02,weatherlink.com 1.10,2013-03-28 19:32:00,
2013-03-28 15:47:00,47.8,33.0,29.93,NE,40,0.0,-999.0,58,-99.99,,,0.02,weatherlink.com 1.10,2013-03-28 19:47:00,
2013-03-28 16:04:00,47.0,34.0,29.94,NNE,23,1.0,-999.0,60,-99.99,,,0.02,weatherlink.com 1.10,2013-03-28 20:04:00,
2013-03-28 16:17:00,47.3,34.0,29.94,NE,45,1.0,-999.0,61,-99.99,,,0.02,weatherlink.com 1.10,2013-03-28 20:17:00,
2013-03-28 16:32:00,47.3,34.0,29.94,NNE,20,1.0,-999.0,61,-99.99,,,0.02,weatherlink.com 1.10,2013-03-28 20:32:00,
2013-03-28 16:47:00,46.8,34.0,29.94,NNE,15,0.0,-999.0,62,-99.99,,,0.02,weatherlink.com 1.10,2013-03-28 20:47:00,
2013-03-28 17:04:00,46.4,34.0,29.94,North,6,0.0,-999.0,63,-99.99,,,0.02,weatherlink.com 1.10,2013-03-28 21:04:00,
2013-03-28 17:17:00,46.3,34.0,29.95,East,99,0.0,-999.0,63,-99.99,,,0.02,weatherlink.com 1.10,2013-03-28 21:17:00,
2013-03-28 17:32:00,46.0,34.0,29.95,East,84,0.0,-999.0,64,-99.99,,,0.02,weatherlink.com 1.10,2013-03-28 21:32:00,
2013-03-28 17:47:00,45.7,34.0,29.95,ENE,70,0.0,-999.0,64,-99.99,,,0.02,weatherlink.com 1.10,2013-03-28 21:47:00,
2013-03-28 18:04:00,45.4,34.0,29.96,ENE,70,0.0,-999.0,64,-99.99,,,0.02,weatherlink.com 1.10,2013-03-28 22:04:00,
2013-03-28 18:17:00,45.0,34.0,29.97,ENE,69,0.0,-999.0,66,-99.99,,,0.02,weatherlink.com 1.10,2013-03-28 22:17:00,
2013-03-28 18:32:00,44.2,34.0,29.97,ENE,69,0.0,-999.0,67,-99.99,,,0.02,weatherlink.com 1.10,2013-03-28 22:32:00,
2013-03-28 18:47:00,43.7,34.0,29.98,ENE,69,0.0,-999.0,68,-99.99,,,0.02,weatherlink.com 1.10,2013-03-28 22:47:00,
2013-03-28 19:04:00,43.4,33.0,29.98,ENE,69,0.0,-999.0,68,-99.99,,,0.02,weatherlink.com 1.10,2013-03-28 23:04:00,
2013-03-28 19:17:00,43.1,34.0,29.98,ENE,69,0.0,-999.0,69,-99.99,,,0.02,weatherlink.com 1.10,2013-03-28 23:17:00,
2013-03-28 19:32:00,42.7,33.0,29.99,ENE,70,1.0,-999.0,69,-99.99,,,0.02,weatherlink.com 1.10,2013-03-28 23:32:00,
2013-03-28 19:47:00,42.1,33.0,30.00,East,81,0.0,-999.0,70,-99.99,,,0.02,weatherlink.com 1.10,2013-03-28 23:47:00,
2013-03-28 20:04:00,42.1,33.0,30.00,East,85,2.0,-999.0,70,-99.99,,,0.02,weatherlink.com 1.10,2013-03-29 00:04:00,
2013-03-28 20:17:00,41.8,33.0,30.00,ESE,103,0.0,-999.0,70,-99.99,,,0.02,weatherlink.com 1.10,2013-03-29 00:17:00,
2013-03-28 20:32:00,41.7,33.0,30.00,ESE,103,0.0,-999.0,70,-99.99,,,0.02,weatherlink.com 1.10,2013-03-29 00:32:00,
2013-03-28 21:04:00,41.5,32.0,30.01,ESE,103,0.0,-999.0,70,-99.99,,,0.02,weatherlink.com 1.10,2013-03-29 01:04:00,
2013-03-28 21:17:00,41.6,32.0,30.01,ESE,103,0.0,-999.0,70,-99.99,,,0.02,weatherlink.com 1.10,2013-03-29 01:17:00,
2013-03-28 21:32:00,41.5,32.0,30.02,ESE,103,0.0,-999.0,70,-99.99,,,0.02,weatherlink.com 1.10,2013-03-29 01:32:00,
2013-03-28 21:47:00,41.6,32.0,30.02,ESE,103,0.0,-999.0,70,-99.99,,,0.02,weatherlink.com 1.10,2013-03-29 01:47:00,
2013-03-28 22:04:00,41.5,32.0,30.02,ESE,108,0.0,-999.0,69,-99.99,,,0.02,weatherlink.com 1.10,2013-03-29 02:04:00,
2013-03-28 22:17:00,41.5,32.0,30.02,ESE,108,0.0,-999.0,69,-99.99,,,0.02,weatherlink.com 1.10,2013-03-29 02:17:00,
2013-03-28 22:32:00,41.5,32.0,30.02,ESE,108,0.0,-999.0,69,-99.99,,,0.02,weatherlink.com 1.10,2013-03-29 02:32:00,
2013-03-28 22:47:00,41.5,32.0,30.02,ESE,108,0.0,-999.0,69,-99.99,,,0.02,weatherlink.com 1.10,2013-03-29 02:47:00,
2013-03-28 23:04:00,41.5,32.0,30.01,ESE,108,0.0,-999.0,68,-99.99,,,0.02,weatherlink.com 1.10,2013-03-29 03:04:00,
2013-03-28 23:32:00,41.2,32.0,30.02,ESE,108,0.0,-999.0,69,-99.99,,,0.02,weatherlink.com 1.10,2013-03-29 03:32:00,
2013-03-28 23:47:00,41.0,32.0,30.02,ESE,108,0.0,-999.0,69,-99.99,,,0.02,weatherlink.com 1.10,2013-03-29 03:47:00,